Tracking 30009 objects as of 8-Dec-2024
HD Live streaming from Space Station
objects crossing your sky now

STARLINK-5038

Track STARLINK-5038 now!
10-day predictions
STARLINK-5038 is classified as:


NORAD ID: 56472
Int'l Code: 2023-064AA
Perigee: 574.7 km
Apogee: 578.7 km
Inclination: 70.0 °
Period: 96.1 minutes
Semi major axis: 6947 km
RCS: Unknown
Launch date: May 10, 2023
Source: United States (US)
Launch site: AIR FORCE WESTERN TEST RANGE (AFWTR)
Your satellite tracking list
Your tracking list is empty




NASA's NSSDC Master Catalog

Two Line Element Set (TLE):
1 56472U 23064AA  24342.82525135 -.00000478  00000-0 -31580-4 0  9997
2 56472  69.9985 196.4434 0002871 269.2039  90.8791 14.99136812 87667
Source of the keplerian elements: AFSPC